Location: Ferintosh
(52.7647°N, 112.9692°W)
Time: 15:53:28
(UTC+00:00)

Transit 2A - Pass Details

Date: 24 May 2024
Orbit: 592 x 959 km, 66.7° (Epoch: 23 June)

Event Time Altitude Azimuth Distance (km) Brightness Sun altitude
Rises 12:13:31 0° 317° (NW) 3,290 9.1 5.8°
Reaches altitude 10° 12:16:04 10° 327° (NNW) 2,418 8.6 6.2°
Maximum altitude 12:21:13 35° 33° (NNE) 1,369 8.3 6.9°
Drops below altitude 10° 12:26:46 10° 98° (E) 2,613 9.9 7.6°
Sets 12:29:37 0° 107° (ESE) 3,590 10.3 8.0°
